Bullsbrook Pearce, Australia

11:45 PM AWST on April 23, 2018 (GMT +0800)
Pearce (Military)

Weather History for YPEA - December, 2012

Change the Weather History Date:

Thursday, December 13, 2012

  Actual Average (YPPH) Record (YPPH)
Temperature  
Mean Temperature 70 °F -  
Max Temperature 75 °F 83 °F 102 °F (2013)
Min Temperature 66 °F 58 °F 53 °F (2005)
Cooling Degree Days 6    
Growing Degree Days 20 (Base 50)    
Moisture  
Dew Point 60 °F    
Average Humidity 71    
Maximum Humidity 83    
Minimum Humidity 49    
Precipitation  
Precipitation 0.12 in - - ()
Sea Level Pressure  
Sea Level Pressure 29.85 in    
Wind  
Wind Speed 9 mph ()    
Max Wind Speed 14 mph    
Max Gust Speed -    
Visibility 7.2 miles    
Events Rain    
Averages and records for this station are not official NWS values.
T = Trace of Precipitation, MM = Missing Value Source: Averaged Metar Reports

Daily Weather History Graph

Daily Weather History Graph

Search for Another Location

Airport or City:

Astronomy

Dec. 13, 2012 Rise Set
Actual Time 5:04 AM AWST 7:16 PM AWST
Civil Twilight 4:36 AM AWST 7:44 PM AWST
Nautical Twilight 4:02 AM AWST 8:18 PM AWST
Astronomical Twilight 3:25 AM AWST 8:55 PM AWST
Moon 4:46 AM AWST (12/13) 7:10 PM AWST (12/13)
Length of Visible Light 15h 07m
Length of Day
14h 11m
Waning Crescent, 0% of the Moon is Illuminated
Dec 13
Waning Crescent
Dec 13
New
Dec 20
First Quarter
Dec 28
Full
Jan 5
Last Quarter

Hourly Weather History & Observations

Time (AWST) Temp. Dew Point Humidity Pressure Visibility Wind Dir Wind Speed Gust Speed Precip Events Conditions
12:00 AM 66 °F 60 °F 74% 29.81 in - East 9.2 mph - -  
12:00 AM 66.2 °F 59.0 °F 78% 29.80 in 6.2 mi East 9.2 mph - N/A   Scattered Clouds
1:00 AM 66.2 °F 59.0 °F 78% 29.80 in 6.2 mi East 11.5 mph - N/A   Scattered Clouds
2:00 AM 66.2 °F 59.0 °F 78% 29.80 in 6.2 mi East 10.4 mph - N/A   Scattered Clouds
3:00 AM 66 °F 60 °F 74% 29.82 in - East 10.4 mph - -  
3:00 AM 66.2 °F 59.0 °F 78% 29.83 in 6.2 mi East 10.4 mph - N/A   Scattered Clouds
4:00 AM 66.2 °F 59.0 °F 78% 29.83 in 6.2 mi ESE 12.7 mph - N/A   Unknown
5:00 AM 66.2 °F 59.0 °F 78% 29.83 in 6.2 mi East 11.5 mph - N/A   Scattered Clouds
6:00 AM 66 °F 59 °F 72% 29.86 in - East 10.4 mph - -  
6:00 AM 66.2 °F 59.0 °F 78% 29.86 in 6.2 mi East 10.4 mph - N/A   Mostly Cloudy
7:00 AM 69.8 °F 60.8 °F 73% 29.86 in 6.2 mi ESE 11.5 mph - N/A   Mostly Cloudy
8:00 AM 69.8 °F 59.0 °F 68% 29.89 in 6.2 mi East 13.8 mph - N/A   Mostly Cloudy
9:00 AM 70 °F 60 °F 61% 29.89 in 19 mi ESE 13.8 mph - - Rain Light Rain Showers
9:00 AM 69.8 °F 59.0 °F 68% 29.89 in 6.2 mi ESE 13.8 mph - N/A Rain Rain Showers
10:00 AM 68.0 °F 62.6 °F 83% 29.89 in 6.2 mi SE 8.1 mph - N/A Rain Light Rain Showers
11:00 AM 68.0 °F 62.6 °F 83% 29.89 in 6.2 mi SE 13.8 mph - N/A   Partly Cloudy
12:00 PM 69.8 °F 60.8 °F 73% 29.89 in 6.2 mi SE 11.5 mph - N/A Rain Heavy Rain Showers
1:00 PM 68.0 °F 60.8 °F 78% 29.86 in 6.2 mi ESE 5.8 mph - N/A Rain Light Rain Showers
2:00 PM 69.8 °F 62.6 °F 78% 29.86 in 6.2 mi SW 10.4 mph - N/A Rain Light Rain Showers
3:00 PM 75 °F 60 °F 51% 29.84 in 19 mi ESE 10.4 mph - -   Mostly Cloudy
3:00 PM 75.2 °F 60.8 °F 61% 29.83 in 6.2 mi ESE 10.4 mph - N/A   Scattered Clouds
4:00 PM 75.2 °F 59.0 °F 57% 29.83 in 6.2 mi ESE 10.4 mph - N/A   Partly Cloudy
5:00 PM 75.2 °F 59.0 °F 57% 29.83 in 6.2 mi South 9.2 mph - N/A   Partly Cloudy
6:00 PM 75 °F 60 °F 49% 29.84 in - South 10.4 mph - -  
6:00 PM 75.2 °F 59.0 °F 57% 29.83 in 6.2 mi South 10.4 mph - N/A   Partly Cloudy
7:00 PM 75.2 °F 59.0 °F 57% 29.86 in 6.2 mi South 9.2 mph - N/A   Mostly Cloudy
8:00 PM 71.6 °F 60.8 °F 69% 29.86 in 6.2 mi WSW 4.6 mph - N/A   Mostly Cloudy
9:00 PM 70 °F 61 °F 66% 29.89 in - South 5.8 mph - -  
9:00 PM 69.8 °F 60.8 °F 73% 29.89 in 6.2 mi South 5.8 mph - N/A   Scattered Clouds
10:00 PM 68.0 °F 62.6 °F 83% 29.92 in 6.2 mi NNW 2.3 mph - N/A   Unknown
11:00 PM 68.0 °F 60.8 °F 78% 29.92 in 6.2 mi SSE 5.8 mph - N/A   Scattered Clouds